Location: Ciula Mare
(45.6000°N, 22.8167°E)
Time: 12:07:44
(UTC+00:00)

YAOGAN 1 - Visible Passes

Search period start: 28 September 2023 00:00
Search period end: 08 October 2023 00:00
Orbit: 614 x 616 km, 97.8° (Epoch: 27 September)

Date Brightness Start Highest point End Pass type
(mag) Time Alt. Az. Time Alt. Az. Time Alt. Az.
28 Sep 4.0 17:46:14 10° SSW 17:50:16 39° W 17:54:20 10° NNW visible
29 Sep 4.7 18:02:32 10° SSW 18:06:12 27° W 18:09:54 10° NW visible
30 Sep 2.9 16:41:52 10° SE 16:45:56 43° ENE 16:50:02 10° N visible
30 Sep 5.2 18:19:05 10° SW 18:22:10 19° W 18:25:16 10° NW visible
01 Oct 2.5 16:57:28 10° SSE 17:01:43 64° ENE 17:05:59 10° N visible
01 Oct 5.6 18:36:06 10° WSW 18:38:10 13° W 18:40:14 10° WNW visible
02 Oct 2.5 17:13:13 10° SSE 17:17:31 87° WSW 17:21:51 10° NNW visible
03 Oct 3.1 17:29:07 10° S 17:33:22 59° W 17:37:38 10° NNW visible
04 Oct 3.9 17:45:11 10° SSW 17:49:14 40° W 17:53:19 10° NNW visible
05 Oct 3.4 16:25:24 10° SE 16:29:09 30° ENE 16:32:55 10° N visible
05 Oct 4.6 18:01:27 10° SSW 18:05:09 28° W 18:08:52 10° NW visible
06 Oct 2.9 16:40:49 10° SE 16:44:52 42° ENE 16:48:57 10° N visible
06 Oct 5.2 18:17:57 10° SW 18:21:06 19° W 18:24:14 10° NW visible
07 Oct 2.5 16:56:23 10° SSE 17:00:38 62° ENE 17:04:54 10° N visible
07 Oct 5.6 18:34:54 10° WSW 18:37:04 13° W 18:39:13 10° WNW visible
